Flag for Germany Weather past 2 weeks in Leonberg, Baden-Württemberg, Germany

Now
39 °F

Clear.


Feels Like: 39 °F
Forecast: 51 / 67 °F
Wind: 2 mph from North

Location: Stuttgart-Echterdingen

Current Time: May 28, 2015 at 4:59:15 AM

Latest Report: May 28, 2015 at 4:20 AM


Visibility: 10 mi

Pressure: 30.12 "Hg

Humidity: 93%

Dew point: 37 °F

Location of LeonbergLocation

Historic Weather in Leonberg — Graph

°F

Leonberg temperature yesterday

Maximum temperature yesterday: 57 °F (at 3:50 PM)
Minimum temperature yesterday: 46 °F (at 4:50 AM)
Average temperature yesterday: 52 °F

Past Weeks' High & Low Weather Summary

 TemperatureHumidityPressure
High73 °F (May 13, 2:50 PM)100% (May 15, 4:20 AM)30.30 "Hg (May 15, 4:20 AM)
Low37 °F (May 22, 5:50 AM)25% (May 18, 6:20 PM)29.74 "Hg (May 18, 6:20 PM)
Average56 °F70%30.06 "Hg
* Reported May 13 3:20 AM — May 28 3:20 AM, Leonberg, Weather by CustomWeather, © 2015

Note: Actual official high and low records may vary slightly from our data, if they occured in-between our weather recording intervals... More about our weather records

Advertising

Leonberg weather history for previous 24 hours

 ConditionsComfort  
Time TempWeatherWind HumidityBarometerVisibility
3:20 AM
Thu, May 28
41 °FClear.1 mph93%30.12 "Hg10 mi
2:50 AM43 °FClear.2 mph87%30.12 "Hg10 mi
2:20 AM43 °FPassing clouds.3 mph87%30.12 "HgN/A
1:50 AM43 °FClear.2 mph93%30.15 "Hg10 mi
1:20 AM45 °FClear.1 mph87%30.15 "Hg10 mi
12:50 AM45 °FClear.2 mph87%30.15 "Hg10 mi
12:20 AM46 °FClear.1 mph82%30.18 "Hg10 mi
11:50 PM
Wed, May 27
48 °FClear.3 mph76%30.18 "Hg10 mi
11:20 PM50 °FClear.3 mph71%30.18 "Hg10 mi
10:50 PM50 °FClear.1 mph71%30.18 "Hg10 mi
10:20 PM50 °FClear.2 mph71%30.18 "Hg10 mi
9:50 PM52 °FSunny.3 mph62%30.18 "Hg10 mi
9:20 PM54 °FSunny.3 mph63%30.18 "Hg10 mi
8:50 PM54 °FScattered clouds.6 mph63%30.18 "HgN/A
8:20 PM55 °FScattered clouds.7 mph59%30.18 "HgN/A
7:50 PM55 °FPartly sunny.5 mph55%30.18 "HgN/A
7:20 PM55 °FPartly sunny.7 mph55%30.18 "HgN/A
6:50 PM57 °FScattered clouds.8 mph51%30.18 "HgN/A
6:20 PM57 °FScattered clouds.5 mph51%30.18 "HgN/A
5:50 PM57 °FScattered clouds.7 mph51%30.18 "HgN/A
5:20 PM57 °FScattered clouds.5 mph55%30.18 "HgN/A
4:50 PM57 °FScattered clouds.7 mph55%30.21 "HgN/A
4:20 PM57 °FScattered clouds.5 mph55%30.21 "HgN/A
3:50 PM57 °FScattered clouds.8 mph55%30.21 "HgN/A
3:20 PM55 °FBroken clouds.8 mph59%30.21 "HgN/A
2:50 PM55 °FBroken clouds.6 mph55%30.21 "HgN/A
2:20 PM55 °FBroken clouds.2 mph55%30.21 "HgN/A
1:50 PM55 °FBroken clouds.5 mph51%30.21 "HgN/A
1:20 PM54 °FBroken clouds.8 mph58%30.21 "HgN/A
12:50 PM54 °FBroken clouds.7 mph63%30.24 "HgN/A
12:20 PM54 °FBroken clouds.6 mph58%30.24 "HgN/A
11:50 AM54 °FBroken clouds.7 mph63%30.24 "HgN/A
11:20 AM52 °FBroken clouds.8 mph67%30.24 "HgN/A
10:50 AM52 °FBroken clouds.5 mph62%30.24 "HgN/A
10:20 AM54 °FPartly sunny.2 mph63%30.24 "HgN/A
9:50 AM52 °FPartly sunny.6 mph72%30.24 "HgN/A
9:20 AM52 °FPartly sunny.6 mph67%30.24 "HgN/A
8:50 AM50 °FPartly sunny.6 mph76%30.21 "HgN/A
8:20 AM50 °FPartly sunny.6 mph76%30.21 "HgN/A
7:50 AM50 °FSunny.7 mph71%30.21 "Hg10 mi
7:20 AM50 °FSunny.6 mph71%30.21 "Hg10 mi
6:50 AM48 °FPassing clouds.5 mph76%30.21 "HgN/A
6:20 AM48 °FClear.5 mph76%30.21 "Hg10 mi
5:50 AM46 °FClear.2 mph82%30.21 "Hg10 mi
5:20 AM46 °FClear.3 mph82%30.21 "Hg10 mi
4:50 AM46 °FClear.3 mph82%30.21 "Hg10 mi
4:20 AM48 °FClear.5 mph76%30.21 "Hg10 mi
Weather by CustomWeather, © 2015

See weather overviewHow to use our weather pages